• In United Kingdom
  • List of Countries
  • For 7 days
  • Water Temperature
  • Satellite Maps
  • Weather Map
  • Weather Widgets
  • user-avatar
    Login

    Hourly Weather Nakhchivan

    Today, 20 September, Wednesday

    Time Temperature Precipitation Wind Pressure Humidity
    00:00 +25°C° 0 mm 1 mps 689 mmHg 24%
    01:00 +25°C° 0 mm 1 mps 689 mmHg 25%
    02:00 +24°C° 0 mm 1 mps 689 mmHg 26%
    03:00 +23°C° 0 mm 1 mps 689 mmHg 27%
    04:00 +23°C° 0 mm 1 mps 689 mmHg 28%
    05:00 +23°C° 0 mm 1 mps 689 mmHg 29%
    06:00 +22°C° 0 mm 1 mps 689 mmHg 29%
    07:00 +24°C° 0 mm 1 mps 689 mmHg 26%
    08:00 +27°C° 0 mm 1 mps 690 mmHg 22%
    09:00 +29°C° 0 mm 1 mps 690 mmHg 18%
    10:00 +30°C° 0 mm 1 mps 690 mmHg 16%
    11:00 +32°C° 0 mm 1 mps 690 mmHg 15%
    12:00 +34°C° 0 mm 2 mps 690 mmHg 13%
    13:00 +34°C° 0 mm 2 mps 689 mmHg 13%
    14:00 +35°C° 0 mm 2 mps 689 mmHg 12%
    15:00 +35°C° 0 mm 2 mps 689 mmHg 12%
    16:00 +34°C° 0 mm 2 mps 689 mmHg 13%
    17:00 +32°C° 0 mm 2 mps 689 mmHg 14%
    18:00 +31°C° 0 mm 2 mps 688 mmHg 16%
    19:00 +30°C° 0 mm 2 mps 688 mmHg 18%
    20:00 +29°C° 0 mm 2 mps 689 mmHg 20%
    21:00 +28°C° 0 mm 2 mps 689 mmHg 23%
    22:00 +27°C° 0 mm 1 mps 689 mmHg 24%
    23:00 +26°C° 0 mm 1 mps 688 mmHg 26%

    Tomorrow, 21 September, Thursday

    Time Temperature Precipitation Wind Pressure Humidity
    00:00 +26°C° 0 mm 1 mps 688 mmHg 28%
    01:00 +25°C° 0 mm 1 mps 688 mmHg 28%
    02:00 +25°C° 0 mm 1 mps 688 mmHg 29%
    03:00 +24°C° 0 mm 1 mps 688 mmHg 30%
    04:00 +24°C° 0 mm 1 mps 688 mmHg 30%
    05:00 +23°C° 0 mm 1 mps 688 mmHg 30%
    06:00 +23°C° 0 mm 1 mps 688 mmHg 31%
    07:00 +25°C° 0 mm 1 mps 689 mmHg 27%
    08:00 +27°C° 0 mm 1 mps 689 mmHg 23%
    09:00 +30°C° 0 mm 1 mps 689 mmHg 20%
    10:00 +31°C° 0 mm 1 mps 689 mmHg 18%
    11:00 +32°C° 0 mm 1 mps 689 mmHg 16%
    12:00 +34°C° 0 mm 2 mps 689 mmHg 15%
    13:00 +35°C° 0 mm 2 mps 688 mmHg 14%
    14:00 +35°C° 0 mm 2 mps 688 mmHg 14%
    15:00 +36°C° 0 mm 2 mps 688 mmHg 13%
    16:00 +34°C° 0 mm 2 mps 687 mmHg 15%
    17:00 +32°C° 0 mm 2 mps 687 mmHg 17%
    18:00 +31°C° 0 mm 2 mps 687 mmHg 19%
    19:00 +30°C° 0 mm 2 mps 687 mmHg 21%
    20:00 +29°C° 0 mm 2 mps 687 mmHg 24%
    21:00 +28°C° 0 mm 2 mps 688 mmHg 27%
    22:00 +27°C° 0 mm 2 mps 687 mmHg 29%
    23:00 +27°C° 0 mm 2 mps 687 mmHg 30%

    Day after tomorrow, 22 September, Friday

    Time Temperature Precipitation Wind Pressure Humidity
    00:00 +26°C° 0 mm 2 mps 687 mmHg 32%
    01:00 +25°C° 0 mm 2 mps 687 mmHg 33%
    02:00 +25°C° 0 mm 2 mps 687 mmHg 34%
    03:00 +24°C° 0 mm 1 mps 687 mmHg 35%
    04:00 +24°C° 0 mm 1 mps 687 mmHg 36%
    05:00 +23°C° 0 mm 1 mps 687 mmHg 37%
    06:00 +23°C° 0 mm 1 mps 687 mmHg 39%
    07:00 +25°C° 0 mm 1 mps 687 mmHg 34%
    08:00 +27°C° 0 mm 1 mps 687 mmHg 29%
    09:00 +29°C° 0 mm 1 mps 687 mmHg 25%
    10:00 +31°C° 0 mm 2 mps 687 mmHg 22%
    11:00 +32°C° 0 mm 2 mps 687 mmHg 19%
    12:00 +35°C° 0 mm 3 mps 687 mmHg 16%
    13:00 +35°C° 0 mm 3 mps 686 mmHg 15%
    14:00 +36°C° 0 mm 4 mps 686 mmHg 14%
    15:00 +37°C° 0 mm 4 mps 686 mmHg 12%
    16:00 +35°C° 0 mm 4 mps 686 mmHg 14%
    17:00 +34°C° 0 mm 4 mps 686 mmHg 16%
    18:00 +32°C° 0 mm 4 mps 685 mmHg 18%
    19:00 +30°C° 0 mm 3 mps 686 mmHg 23%
    20:00 +29°C° 0 mm 3 mps 686 mmHg 27%
    21:00 +28°C° 0 mm 3 mps 686 mmHg 31%
    22:00 +27°C° 0 mm 3 mps 687 mmHg 33%
    23:00 +26°C° 0 mm 2 mps 687 mmHg 35%

    23 September, Saturday

    Time Temperature Precipitation Wind Pressure Humidity
    00:00 +26°C° 0 mm 2 mps 687 mmHg 37%
    01:00 +25°C° 0 mm 2 mps 687 mmHg 38%
    02:00 +24°C° 0 mm 2 mps 687 mmHg 40%
    03:00 +24°C° 0 mm 1 mps 687 mmHg 41%
    04:00 +23°C° 0 mm 1 mps 687 mmHg 42%
    05:00 +23°C° 0 mm 1 mps 687 mmHg 43%
    06:00 +22°C° 0 mm 1 mps 687 mmHg 44%
    07:00 +24°C° 0 mm 1 mps 688 mmHg 39%
    08:00 +26°C° 0 mm 1 mps 688 mmHg 34%
    09:00 +28°C° 0 mm 1 mps 689 mmHg 29%
    10:00 +29°C° 0 mm 1 mps 689 mmHg 27%
    11:00 +30°C° 0 mm 1 mps 688 mmHg 24%
    12:00 +31°C° 0 mm 2 mps 688 mmHg 22%
    13:00 +32°C° 0 mm 2 mps 688 mmHg 21%
    14:00 +32°C° 0 mm 2 mps 688 mmHg 20%
    15:00 +34°C° 0 mm 3 mps 688 mmHg 19%
    16:00 +33°C° 0 mm 3 mps 688 mmHg 21%
    17:00 +31°C° 0 mm 2 mps 688 mmHg 22%
    18:00 +29°C° 0 mm 2 mps 688 mmHg 24%
    19:00 +28°C° 0 mm 2 mps 689 mmHg 27%
    20:00 +27°C° 0 mm 2 mps 689 mmHg 31%
    21:00 +26°C° 0 mm 2 mps 689 mmHg 34%
    22:00 +26°C° 0 mm 2 mps 689 mmHg 36%
    23:00 +25°C° 0 mm 2 mps 689 mmHg 39%

    24 September, Sunday

    Time Temperature Precipitation Wind Pressure Humidity
    00:00 +24°C° 0 mm 2 mps 689 mmHg 42%
    01:00 +24°C° 0 mm 2 mps 689 mmHg 44%
    02:00 +23°C° 0 mm 2 mps 689 mmHg 46%
    03:00 +23°C° 0 mm 1 mps 689 mmHg 48%
    04:00 +22°C° 0 mm 1 mps 689 mmHg 49%
    05:00 +22°C° 0 mm 1 mps 689 mmHg 51%
    06:00 +22°C° 0 mm 1 mps 690 mmHg 52%
    07:00 +23°C° 0 mm 1 mps 690 mmHg 46%
    08:00 +25°C° 0 mm 1 mps 690 mmHg 40%
    09:00 +27°C° 0 mm 1 mps 691 mmHg 34%
    10:00 +29°C° 0 mm 2 mps 691 mmHg 30%
    11:00 +30°C° 0 mm 2 mps 690 mmHg 26%
    12:00 +31°C° 0 mm 3 mps 690 mmHg 22%
    13:00 +33°C° 0 mm 3 mps 690 mmHg 21%
    14:00 +34°C° 0 mm 4 mps 690 mmHg 19%
    15:00 +34°C° 0 mm 4 mps 690 mmHg 18%
    16:00 +33°C° 0 mm 4 mps 690 mmHg 20%
    17:00 +30°C° 0 mm 4 mps 690 mmHg 23%
    18:00 +29°C° 0 mm 4 mps 690 mmHg 26%
    19:00 +28°C° 0 mm 3 mps 690 mmHg 29%
    20:00 +27°C° 0 mm 3 mps 690 mmHg 32%
    21:00 +26°C° 0 mm 2 mps 690 mmHg 35%
    22:00 +25°C° 0 mm 2 mps 690 mmHg 37%
    23:00 +24°C° 0 mm 2 mps 690 mmHg 39%

    25 September, Monday

    Time Temperature Precipitation Wind Pressure Humidity
    00:00 +24°C° 0 mm 2 mps 690 mmHg 41%
    01:00 +23°C° 0 mm 2 mps 690 mmHg 42%
    02:00 +22°C° 0 mm 1 mps 690 mmHg 43%
    03:00 +22°C° 0 mm 1 mps 690 mmHg 44%
    04:00 +21°C° 0 mm 1 mps 690 mmHg 45%
    05:00 +21°C° 0 mm 1 mps 690 mmHg 46%
    06:00 +21°C° 0 mm 1 mps 690 mmHg 46%
    07:00 +23°C° 0 mm 1 mps 691 mmHg 40%
    08:00 +25°C° 0 mm 1 mps 691 mmHg 35%
    09:00 +27°C° 0 mm 1 mps 691 mmHg 29%
    10:00 +28°C° 0 mm 1 mps 691 mmHg 26%
    11:00 +29°C° 0 mm 2 mps 691 mmHg 23%
    12:00 +30°C° 0 mm 2 mps 691 mmHg 20%
    13:00 +31°C° 0 mm 2 mps 691 mmHg 19%
    14:00 +33°C° 0 mm 3 mps 690 mmHg 18%
    15:00 +33°C° 0 mm 3 mps 690 mmHg 17%
    16:00 +31°C° 0 mm 3 mps 690 mmHg 19%
    17:00 +30°C° 0 mm 3 mps 690 mmHg 22%
    18:00 +28°C° 0 mm 3 mps 690 mmHg 24%
    19:00 +27°C° 0 mm 2 mps 690 mmHg 28%
    20:00 +26°C° 0 mm 2 mps 691 mmHg 32%
    21:00 +25°C° 0 mm 2 mps 691 mmHg 36%
    22:00 +25°C° 0 mm 2 mps 691 mmHg 39%
    23:00 +24°C° 0 mm 2 mps 691 mmHg 42%
    Show more